Regional Weather Roundup
Issued by NWS Grand Forks, ND

Home | Current Version | Previous Version | Graphics & Text | Print | Product List | Glossary On
Versions: 1 2 3 4 5 6 7 8 9 10 11 12 13 14 15 16 17 18 19 20 21 22 23 24 25 26 27 28 29 30 31 32 33 34 35 36 37 38 39 40 41 42 43 44 45 46 47 48 49 50
000
ASUS43 KFGF 250031
RWRFGF
PRAIRIE TO PINES  WEATHER ROUNDUP
NATIONAL WEATHER SERVICE EASTERN NORTH DAKOTA/GRAND FORKS ND
600 PM CST TUE JAN 24 2017

 **SATELLITE DATA USED TO AUGMENT SKY COVER AT AUTOMATED STATIONS**
 *****  WEATHER ACROSS EASTERN NORTH DAKOTA  *****

CITY           SKY/WX    TMP DP  RH WIND       PRES   REMARKS
GRAND FORKS    CLOUDY    28  22  78 CALM      29.89S
6HR MIN TEMP:  28; 6HR MAX TEMP:  29;

GRAND FRKS AFB CLOUDY    27  25  93 CALM      29.89S
DEVILS LAKE    CLOUDY    24  21  88 NW9       29.88S WCI  14
6HR MIN TEMP:  22; 6HR MAX TEMP:  24;

FARGO          CLOUDY    29  24  82 N13       29.87R WCI  19
WAHPETON ARPT  CLOUDY    28  23  80 N12       29.85S WCI  18
$$

 ***** WEATHER ACROSS CENTRAL AND WESTERN NORTH DAKOTA  *****

CITY           SKY/WX    TMP DP  RH WIND       PRES   REMARKS
BISMARCK       CLOUDY    25  19  78 NW14      29.92R WCI  13
6HR MIN TEMP:  25; 6HR MAX TEMP:  27;

MINOT          CLOUDY    21  16  81 W13       29.91R WCI   9
6HR MIN TEMP:  21; 6HR MAX TEMP:  24; 6HR PCP: TRACE;

JAMESTOWN      CLOUDY    23  19  85 N15       29.86R WCI  10
6HR MIN TEMP:  23; 6HR MAX TEMP:  25;

MINOT AFB      MOCLDY    19  16  85 NW15      29.91R WCI   5
GARRISON         N/A     20  16  84 NW16      29.90R WCI   6
WILLISTON      CLOUDY    18  12  77 NW10      29.95R WCI   6
6HR MIN TEMP:  18; 6HR MAX TEMP:  21; 6HR PCP: TRACE;

DICKINSON      MOCLDY    17  12  80 NW10      29.87R WCI   5
6HR MIN TEMP:  17; 6HR MAX TEMP:  22;

HETTINGER      FAIR      18  13  80 NW13      29.89R WCI   5
6HR MIN TEMP:  18; 6HR MAX TEMP:  21;

$$

 *****  OTHER AIRPORT OBSERVATIONS IN OUR AREA  *****

CITY           SKY/WX    TMP DP  RH WIND       PRES   REMARKS
WALHALLA       NOT AVBL
GRAFTON AIRPOR CLOUDY    28  28 100 N5        29.92R WCI  23
VALLEY CITY AR MIX PCPN  23  23 100 N15       29.88R WCI  10
CANDO          NOT AVBL
CAVALIER APRT  CLOUDY    27  25  93 N5        29.91R WCI  21
GWINNER        CLOUDY    28  25  86 N14       29.85S WCI  17
SHEYENNE NWR     N/A     26  21  80 N7        29.95S WCI  18
ROLLA            N/A    N/A N/A N/A MISG        N/A
 ***** THE ABOVE OBSERVATIONS ARE NON NWS ARE NOT QUALITY
       CONTROLLED AND MAY MIS-REPORT RAIN FOR SNOW...
$$

  *****  WEATHER ACROSS NORTHERN MINNESOTA  *****

CITY           SKY/WX    TMP DP  RH WIND       PRES   REMARKS
FLAG ISLAND    CLOUDY    27  23  86 S5        29.86S WCI  21
WARROAD        CLOUDY    27  23  86 CALM      29.88S
ROSEAU         MOCLDY    28  23  80 W3        29.88R
HALLOCK        CLOUDY    28  25  86 N7        29.90R WCI  21
THF RVR FALLS  CLOUDY    25  21  86 W5        29.89R WCI  19
6HR MIN TEMP:  25; 6HR MAX TEMP:  27;

BAUDETTE       CLOUDY    26  21  81 CALM      29.86R
6HR MIN TEMP:  25; 6HR MAX TEMP:  26;

WASKISH        CLOUDY    25  21  86 CALM      29.89R
CROOKSTON      CLOUDY    27  25  93 N5        29.90S WCI  21
STEPHEN NDAWN    N/A     27  25  93 NW3         N/A
GREENBUSH NDAW   N/A     27  25  93 W6          N/A  WCI  20
$$
  *****  WEATHER ACROSS CENTRAL AND WEST MINNESOTA  *****

CITY           SKY/WX    TMP DP  RH WIND       PRES   REMARKS
FOSSTON        CLOUDY    23  19  86 N6        29.87S WCI  16
BEMIDJI        CLOUDY    25  22  87 N8        29.85S WCI  16
PARK RAPIDS    CLOUDY    30  22  72 N8        29.80F WCI  22
6HR MIN TEMP:  29; 6HR MAX TEMP:  31;

ELBOW LAKE     CLOUDY    30  26  85 NE9       29.82R FOG     WCI  22
6HR MIN TEMP:  30; 6HR MAX TEMP:  31;

WADENA         CLOUDY    28  25  86 NE7       29.81S WCI  21
DETROIT LAKES  CLOUDY    27  25  93 N8        29.85R WCI  18
MOORHEAD       CLOUDY    27  23  86 N13       29.87S WCI  16
FERGUS FALLS   CLOUDY    28  25  86 NE8       29.87S WCI  20
MORRIS MN      CLOUDY    32  28  86 NE10      29.80S WCI  24
STAPLES        CLOUDY    28  25  86 CALM      29.82S
$$
  *****  WEATHER ELSEWHERE ACROSS MINNESOTA  *****

CITY           SKY/WX    TMP DP  RH WIND       PRES   REMARKS
DULUTH         CLOUDY    30  25  81 N6        29.81S WCI  24
6HR MIN TEMP:  30; 6HR MAX TEMP:  32;

INTRNTL FALLS  CLOUDY    25  19  78 CALM      29.87R
6HR MIN TEMP:  25; 6HR MAX TEMP:  28;

ELY            CLOUDY    28  27  93 N5        29.83F WCI  23
CLOQUET        CLOUDY    30  25  80 N3        29.82R
WHEATON        CLOUDY    28  25  86 N12       29.86R WCI  18
BRAINERD       CLOUDY    29  24  82 VRB3      29.83R
6HR MIN TEMP:  29; 6HR MAX TEMP:  30;

HIBBING        CLOUDY    27  24  89 NE5       29.82F WCI  22
6HR MIN TEMP:  27; 6HR MAX TEMP:  28;

ALEXANDRIA     CLOUDY    30  25  81 NE10      29.80S WCI  21
6HR MIN TEMP:  30; 6HR MAX TEMP:  32;

SAINT CLOUD    CLOUDY    31  26  82 E8        29.80F WCI  23
6HR MIN TEMP:  31; 6HR MAX TEMP:  32;

MINNEAPOLIS    CLOUDY    33  26  75 NE12      29.79F WCI  24
6HR MIN TEMP:  32; 6HR MAX TEMP:  33;

$$

  *****  WEATHER ACROSS SOUTH DAKOTA  *****

CITY           SKY/WX    TMP DP  RH WIND       PRES   REMARKS
SIOUX FALLS    SNOW      30  29  96 NE18      29.71R VSB 1/4 WCI  18
6HR MIN TEMP:  30; 6HR MAX TEMP:  31; 6HR PCP:  0.07;

BROOKINGS      CLOUDY    28  26  92 NE13      29.74R WCI  17
WATERTOWN      CLOUDY    28  27  96 NE13      29.76R WCI  17
6HR MIN TEMP:  28; 6HR MAX TEMP:  29;

HURON          LGT SNOW  30  29  96 N7        29.79S FOG     WCI  23
6HR MIN TEMP:  30; 6HR MAX TEMP:  31; 6HR PCP:  0.03;

SISSETON         N/A     28  27  96 N17       29.83R WCI  16
ABERDEEN       FLURRIES  25  20  81 N13       29.85R WCI  14
6HR MIN TEMP:  25; 6HR MAX TEMP:  29; 6HR PCP:  0.01;

MITCHELL       LGT SNOW  30  30 100 NE15      29.75R VSB 3/4 WCI  19
PIERRE         FOG       22  19  89 N23G32    29.81R VSB 1   WCI   6
6HR MIN TEMP:  22; 6HR MAX TEMP:  27; 6HR PCP:  0.04;

MOBRIDGE       CLOUDY    24  18  77 N12       29.84R WCI  13
RAPID CITY     LGT SNOW  19  16  88 N20       29.86R FOG     WCI   3
6HR MIN TEMP:  19; 6HR MAX TEMP:  22; 6HR PCP:  0.06;

$$

  *****  SOME WEATHER IN NEARBY STATES *****

CITY           SKY/WX    TMP DP  RH WIND       PRES   REMARKS
GLASGOW MT     CLOUDY    19  13  77 NW7       29.96R WCI  10
6HR MIN TEMP:  19; 6HR MAX TEMP:  20; 6HR PCP: TRACE;

GREAT FALLS MT CLOUDY    26  17  68 W6        29.91R WCI  19
6HR MIN TEMP:  18; 6HR MAX TEMP:  30;

CHEYENNE WY    CLOUDY    15  11  83 N13       29.68R WCI   1
6HR MIN TEMP:  15; 6HR MAX TEMP:  18; 6HR PCP: TRACE;

SCOTTSBLUFF NE CLOUDY    22  14  71 NW13      29.78R WCI  10
6HR MIN TEMP:  21; 6HR MAX TEMP:  25; 6HR PCP: TRACE;

OMAHA NE       CLOUDY    34  28  79 E9        29.56S
6HR MIN TEMP:  33; 6HR MAX TEMP:  36; 6HR PCP: TRACE;

DES MOINES IA  CLOUDY    34  30  85 E13G22    29.63R WCI  25
6HR MIN TEMP:  32; 6HR MAX TEMP:  35;

DAVENPORT IA   CLOUDY    36  32  85 E17G28    29.68F
6HR MIN TEMP:  35; 6HR MAX TEMP:  36; 6HR PCP: TRACE;

CHICAGO IL     CLOUDY    36  31  82 E9        29.80S
6HR MIN TEMP:  35; 6HR MAX TEMP:  36;

EAU CLAIRE WI  CLOUDY    33  29  85 NE6       29.79F
6HR MIN TEMP:  33; 6HR MAX TEMP:  34;

LA CROSSE WI   CLOUDY    37  31  78 E7        29.77F
6HR MIN TEMP:  37; 6HR MAX TEMP:  38;

$$

  *****  SOME NATIONAL WEATHER *****

CITY           SKY/WX    TMP DP  RH WIND       PRES   REMARKS
LA GUARDIA NY  LGT RAIN  41  35  79 NW16      29.40R
6HR MIN TEMP:  38; 6HR MAX TEMP:  41; 6HR PCP:  0.32;

RALEIGH NC     FAIR      55  37  50 NW5       29.74R
6HR MIN TEMP:  55; 6HR MAX TEMP:  63;

ATLANTA GA     FAIR      56  34  43 NW6       29.88R
6HR MIN TEMP:  55; 6HR MAX TEMP:  62;

NEW ORLEANS LA FAIR      63  53  70 S10       29.90F
6HR MIN TEMP:  62; 6HR MAX TEMP:  68;

OKLAHOMA CITY  FAIR      67  30  25 W17G24    29.56R
6HR MIN TEMP:  67; 6HR MAX TEMP:  75;

ALBUQUERQUE NM FAIR      38  13  35 W23G31    29.80R
6HR MIN TEMP:  38; 6HR MAX TEMP:  41;

SALT LAKE CITY MOCLDY    31  21  66 N3        29.88R
6HR MIN TEMP:  29; 6HR MAX TEMP:  34; 6HR PCP: TRACE;

LOS ANGELES CA PTSUNNY   54  41  61 W13       30.03R
6HR MIN TEMP:  51; 6HR M



USA.gov is the U.S. government's official web portal to all federal, state and local government web resources and services.